Regional Weather Roundup
Issued by NWS

Home | Current Version | Previous Version | Graphics & Text | Print | Product List | Glossary On
Versions: 1 2 3 4 5 6 7 8 9 10 11 12 13 14 15 16 17 18 19 20 21 22 23 24 25 26 27 28 29 30 31 32 33 34 35 36 37 38 39 40 41 42 43 44 45 46
000
ASUS45 KSLC 031210
RWRUT

UTAH REGIONAL WEATHER ROUNDUP
NATIONAL WEATHER SERVICE SALT LAKE CITY UT
600 AM MDT THU SEP 03 2015

UTZ001>011-023>025-031300-

NORTHERN UTAH

CITY           SKY/WX    TMP DP  RH WIND       PRES   REMARKS
BRIGHAM CITY   MOCLDY    77  33  20 S15       29.88S
HILL AFB       PTCLDY    75  39  27 S17       29.92S
LOGAN          PTCLDY    76  35  22 S12       29.88R
OGDEN          MOCLDY    76  39  26 S18       29.89S
PROVO AIRPORT  MOCLDY    68  41  37 CALM      29.98S
SALT LAKE CITY MOCLDY    76  40  27 S18       29.89F
VERNAL         MOCLDY    61  43  51 W6        30.03R
WENDOVER       MOCLDY    75  32  20 SE16      29.86S
HEBER CITY     CLOUDY    70  36  28 S6G17     30.03S
WEST JORDAN    CLEAR     72  45  37 S14       29.95R

$$

UTZ012>022-026-027-031300-

SOUTHERN/CENTRAL UTAH

CITY           SKY/WX    TMP DP  RH WIND       PRES   REMARKS
BLANDING       MOCLDY    63  51  67 NE6       30.23F
BRYCE CANYON   CLOUDY    49  37  63 S3        30.23F
CEDAR CITY     CLOUDY    65  39  38 SW9       30.07S
DELTA          MOCLDY    67  36  31 S15       29.99R
HANKSVILLE     MOCLDY    72  46  40 SW3       30.02S
MILFORD        CLOUDY    63  37  38 W10       30.01F
MOAB/CYNLANDS  CLOUDY    74  49  41 CALM      29.99S
PRICE          MOCLDY    61  40  45 NE6       30.07S
ST GEORGE      CLOUDY    75  39  27 E9        29.93S
KANAB          CLOUDY    57  48  72 N6        30.14S

$$

REGIONAL REPORTS     COLORADO/ARIZONA

CITY           SKY/WX    TMP DP  RH WIND       PRES   REMARKS
CRAIG, CO      PTCLDY    46  43  89 CALM      30.12F
GRAND JUNCTION MOCLDY    69  49  48 SE5       30.04R
RIFLE          MOCLDY    57  51  80 CALM      30.11R
MONTROSE       CLOUDY    65  49  56 SE6       30.14S
CORTEZ         CLOUDY    61  58  90 CALM      30.18S
PAGE, AZ       MOCLDY    69  49  48 S7        30.04S
GRAND CANYON   CLOUDY    49  45  86 CALM      30.20F
KINGMAN        CLOUDY    72  44  36 SE12      29.97S
FLAGSTAFF      MOCLDY    47  40  76 CALM      30.24S

$$

REGIONAL REPORTS    NEVADA/IDAHO/WYOMING

CITY           SKY/WX    TMP DP  RH WIND       PRES   REMARKS
LAS VEGAS, NV  MOCLDY    81  41  24 S9        29.80S
ELY            CLEAR     59  36  42 S15       30.03F
ELKO           PTCLDY    54  32  43 CALM      29.94R
POCATELLO, ID  CLEAR     63  38  39 SW20      29.89R
BURLEY         PTCLDY    60  38  43 W14G21    29.86S
EVANSTON, WY   PTCLDY    58  34  40 S9        30.11R
ROCK SPRINGS   MOCLDY    61  37  41 CALM      30.09R
KEMMERER       MOCLDY    57  32  38 E3        30.11S

$$



USA.gov is the U.S. government's official web portal to all federal, state and local government web resources and services.